TimeEDT,TemperatureF,Dew PointF,Humidity,Sea Level PressureIn,VisibilityMPH,Wind Direction,Wind SpeedMPH,Gust SpeedMPH,PrecipitationIn,Events,Conditions,WindDirDegrees,DateUTC
12:54 AM,75.0,71.1,87,29.94,10.0,SW,8.1,-,N/A,,Overcast,220,2013-08-09 04:54:00
1:54 AM,75.0,71.1,87,29.94,10.0,SSW,10.4,-,N/A,,Overcast,210,2013-08-09 05:54:00
2:33 AM,73.9,71.1,91,29.97,10.0,SW,8.1,-,N/A,,Overcast,220,2013-08-09 06:33:00
2:54 AM,73.9,71.1,91,29.94,10.0,SSW,8.1,-,0.00,,Overcast,210,2013-08-09 06:54:00
3:08 AM,73.9,71.1,91,29.97,10.0,SSW,9.2,-,N/A,,Overcast,210,2013-08-09 07:08:00
3:39 AM,73.0,71.1,93,29.97,6.0,SSW,5.8,-,0.03,Rain,Light Rain,210,2013-08-09 07:39:00
3:54 AM,73.0,71.1,93,29.94,5.0,SSW,8.1,-,0.04,Rain,Rain,210,2013-08-09 07:54:00
4:40 AM,73.0,71.1,93,29.97,9.0,SW,6.9,-,0.01,Rain,Light Rain,220,2013-08-09 08:40:00
4:51 AM,73.4,71.6,94,29.98,10.0,SW,10.4,-,0.01,,Overcast,220,2013-08-09 08:51:00
4:54 AM,73.0,71.1,93,29.94,10.0,SW,9.2,-,0.01,Rain,Light Rain,220,2013-08-09 08:54:00
5:54 AM,73.0,71.1,93,29.95,10.0,SW,10.4,-,0.06,Rain,Light Rain,220,2013-08-09 09:54:00
6:54 AM,73.0,71.1,93,29.96,10.0,SSW,11.5,-,0.01,,Overcast,200,2013-08-09 10:54:00
7:17 AM,73.0,71.1,93,30.00,10.0,SSW,10.4,-,N/A,,Overcast,200,2013-08-09 11:17:00
7:35 AM,73.0,71.1,93,30.01,10.0,SSW,8.1,-,N/A,,Overcast,200,2013-08-09 11:35:00
7:50 AM,73.4,71.6,94,30.01,9.0,WSW,4.6,-,0.00,Rain,Light Rain,240,2013-08-09 11:50:00
7:54 AM,73.0,71.1,93,29.98,10.0,SW,6.9,-,0.00,Rain,Light Rain,230,2013-08-09 11:54:00
8:06 AM,73.0,71.1,93,30.02,10.0,SW,6.9,-,0.00,,Overcast,230,2013-08-09 12:06:00
8:15 AM,73.0,71.1,93,30.01,10.0,SW,6.9,-,0.00,Rain,Light Rain,230,2013-08-09 12:15:00
8:54 AM,73.9,71.1,91,30.01,10.0,SW,15.0,18.4,0.00,Thunderstorm,Overcast,220,2013-08-09 12:54:00
9:04 AM,73.9,71.1,91,30.04,10.0,WSW,12.7,26.5,N/A,Thunderstorm,Overcast,240,2013-08-09 13:04:00
9:15 AM,73.9,70.0,87,30.03,10.0,SW,15.0,26.5,0.00,Rain,Light Rain,220,2013-08-09 13:15:00
9:21 AM,73.0,69.1,87,30.03,10.0,SSW,13.8,20.7,0.00,Rain,Light Rain,210,2013-08-09 13:21:00
9:32 AM,72.0,69.1,91,30.02,10.0,SSW,9.2,-,0.00,Rain-Thunderstorm,Light Rain,210,2013-08-09 13:32:00
9:50 AM,71.6,69.8,94,30.01,10.0,SSW,5.8,-,0.00,Rain,Light Rain,200,2013-08-09 13:50:00
9:54 AM,72.0,70.0,93,29.98,10.0,SSW,8.1,-,0.01,Rain,Light Rain,200,2013-08-09 13:54:00
10:10 AM,72.0,70.0,93,30.02,10.0,SSW,9.2,-,0.00,Rain,Light Rain,200,2013-08-09 14:10:00
10:22 AM,73.0,70.0,90,30.01,10.0,SSW,8.1,-,0.00,,Mostly Cloudy,200,2013-08-09 14:22:00
10:42 AM,73.0,70.0,90,30.01,10.0,SSW,8.1,-,0.00,,Partly Cloudy,210,2013-08-09 14:42:00
10:54 AM,73.0,70.0,90,29.99,10.0,WSW,8.1,-,0.00,,Scattered Clouds,240,2013-08-09 14:54:00
11:54 AM,77.0,72.0,84,30.00,10.0,SW,12.7,19.6,N/A,,Mostly Cloudy,230,2013-08-09 15:54:00
12:26 PM,79.0,73.0,82,30.03,10.0,SSW,12.7,-,N/A,,Overcast,210,2013-08-09 16:26:00
12:54 PM,81.0,73.0,77,30.00,10.0,West,10.4,-,N/A,,Mostly Cloudy,260,2013-08-09 16:54:00
1:05 PM,81.0,73.0,77,30.02,10.0,SW,12.7,-,N/A,,Mostly Cloudy,230,2013-08-09 17:05:00
1:52 PM,82.4,73.4,74,30.02,10.0,SW,12.7,-,N/A,,Mostly Cloudy,220,2013-08-09 17:52:00
1:54 PM,82.0,73.0,74,29.99,10.0,SW,11.5,-,N/A,,Mostly Cloudy,230,2013-08-09 17:54:00
2:01 PM,82.9,73.9,74,30.02,10.0,SW,9.2,-,N/A,,Mostly Cloudy,230,2013-08-09 18:01:00
2:46 PM,82.9,73.0,72,30.01,10.0,SW,8.1,-,N/A,,Mostly Cloudy,220,2013-08-09 18:46:00
2:54 PM,82.9,73.0,72,29.97,10.0,SW,10.4,-,N/A,,Mostly Cloudy,220,2013-08-09 18:54:00
3:54 PM,84.0,73.0,69,29.97,10.0,WSW,9.2,-,N/A,,Mostly Cloudy,240,2013-08-09 19:54:00
4:54 PM,82.9,72.0,69,29.97,10.0,WSW,9.2,-,N/A,,Scattered Clouds,240,2013-08-09 20:54:00
5:11 PM,77.0,71.1,82,30.01,10.0,North,9.2,21.9,N/A,,Mostly Cloudy,360,2013-08-09 21:11:00
5:49 PM,75.2,71.6,89,30.02,10.0,North,9.2,-,N/A,,Scattered Clouds,360,2013-08-09 21:49:00
5:54 PM,75.9,71.1,85,29.99,10.0,North,8.1,-,N/A,,Mostly Cloudy,360,2013-08-09 21:54:00
6:09 PM,73.9,71.1,91,30.02,1.5,NW,4.6,-,0.00,Rain,Rain,310,2013-08-09 22:09:00
6:17 PM,73.0,72.0,96,30.01,4.0,North,5.8,-,0.18,Rain,Light Rain,360,2013-08-09 22:17:00
6:54 PM,75.0,73.0,94,29.98,7.0,Calm,Calm,-,0.18,,Partly Cloudy,0,2013-08-09 22:54:00
7:08 PM,75.0,73.0,94,30.01,1.8,Calm,Calm,-,0.00,Rain-Thunderstorm,Light Rain,0,2013-08-09 23:08:00
7:15 PM,75.9,73.0,91,30.00,7.0,Calm,Calm,-,0.00,Rain-Thunderstorm,Light Rain,0,2013-08-09 23:15:00
7:29 PM,77.0,72.0,84,30.01,7.0,Calm,Calm,-,0.01,Rain,Light Rain,0,2013-08-09 23:29:00
7:54 PM,77.0,73.9,90,29.98,7.0,Calm,Calm,-,0.01,,Partly Cloudy,0,2013-08-09 23:54:00
8:54 PM,75.9,73.0,91,30.01,6.0,SSW,5.8,-,0.02,Rain,Light Rain,200,2013-08-10 00:54:00
9:54 PM,75.0,72.0,90,30.03,8.0,SSW,10.4,-,0.01,Rain,Light Rain,210,2013-08-10 01:54:00
10:54 PM,73.0,71.1,93,30.03,7.0,South,6.9,-,0.12,Rain,Light Rain,180,2013-08-10 02:54:00
11:54 PM,72.0,70.0,93,30.03,10.0,South,5.8,-,0.01,,Scattered Clouds,190,2013-08-10 03:54:00